Location: Newark
(13.8117°N, 3.6025°W)
Time: 02:42:20
(UTC+00:00)

Vanguard 2 - Pass Details

Date: 28 August 2019
Orbit: 554 x 2937 km, 32.9° (Epoch: 23 October)

Event Time Altitude Azimuth Distance (km) Brightness Sun altitude
Rises 08:55:07 0° 246° (WSW) 2,932 10.1 40.8°
Reaches altitude 10° 08:57:35 10° 251° (WSW) 1,899 9.2 41.4°
Maximum altitude 09:01:36 56° 330° (NNW) 657 7.6 42.4°
Drops below altitude 10° 09:05:37 10° 49° (NE) 1,900 10.3 43.4°
Sets 09:08:05 0° 54° (NE) 2,935 11.1 44.0°
